Regional Weather Roundup
Issued by NWS

Home | Current Version | Previous Version | Text Only | Print | Product List | Glossary Off
Versions: 1 2 3 4 5 6 7 8 9 10 11 12 13 14 15 16 17 18 19 20 21 22 23 24 25 26 27 28 29 30 31 32 33 34 35 36 37 38 39 40 41 42 43 44 45 46 47 48 49 50

201
ASUS45 KCYS 231710
RWRWY

WYOMING REGIONAL WEATHER ROUNDUP
NATIONAL WEATHER SERVICE CHEYENNE WY
1000 AM MST THU NOV 23 2017

NOTE:  "FAIR" INDICATES FEW OR NO CLOUDS BELOW 12,000 FEET
WITH NO SIGNIFICANT WEATHER AND/OR OBSTRUCTIONS TO VISIBILITY.

WYZ001-231800-
YELLOWSTONE NATIONAL PARK

CITY           SKY/WX    TMP DP  RH WIND       PRES   REMARKS
LK YELLOWSTONE   N/A     41  37  86 VRB5      30.24F
W YELLOWSTONE  NOT AVBL

$$
WYZ002>013-054>058-071-098>099-231800-
NORTHERN WYOMING

CITY           SKY/WX    TMP DP  RH WIND       PRES   REMARKS
JACKSON        FAIR      45  39  79 SW8       30.22F
CODY           PTSUNNY   61  34  36 NW14G24   30.02F
GREYBULL       FAIR      36  33  89 SE6       30.01F WCI  31
WORLAND        FAIR      36  35  96 VRB3      30.02F
SHERIDAN       FAIR      50  41  71 N6        29.90F
BUFFALO        FAIR      50  32  50 W8        29.97S
GILLETTE       FAIR      61  36  39 SW21      29.93F
HULETT         FAIR      59  36  41 SW14G21   29.95F
NEWCASTLE      FAIR      54  34  47 SE12      30.02F

$$
WYZ014>020-022>026-101>103-231800-
CENTRAL WYOMING

CITY           SKY/WX    TMP DP  RH WIND       PRES   REMARKS
BIG PINEY      PTSUNNY   32  32 100 CALM      30.29F FOG
PINEDALE       FAIR      32  32 100 CALM      30.30F
DUBOIS         FAIR      50  32  50 NW17G23   30.17F
LANDER         FAIR      43  34  70 NW8       30.09F
RIVERTON       FAIR      47  35  63 CALM      30.11F
CASPER         FAIR      52  36  54 SW28G36   30.10F
DOUGLAS        FAIR      59  39  47 N6        30.06F

$$
WYZ021-027>030-104>119-231800-
SOUTHERN WYOMING

CITY           SKY/WX    TMP DP  RH WIND       PRES   REMARKS
EVANSTON       FAIR      44  38  79 SW12      30.33S
KEMMERER       FAIR      41  36  81 CALM      30.32F
FORT BRIDGER   FAIR      50  34  54 W3        30.34F
ROCK SPRINGS   FAIR      50  35  56 SW9       30.30S
DIXON          FAIR      41  37  84 CALM      30.36F
RAWLINS        LGT RAIN  52  37  56 SW20G36   30.25F
SARATOGA       FAIR      54  36  50 S16G28    30.30F
LARAMIE        FAIR      53  33  46 W24       30.23F
CHEYENNE       FAIR      59  32  36 W22G32    30.17F
TORRINGTON     FAIR      60  42  51 W10       30.05F
PINE BLUFFS    FAIR      61  32  33 W17       30.15F

$$




USA.gov is the U.S. government's official web portal to all federal, state and local government web resources and services.